Location: Baia de Cri?
(46.1667°N, 22.7167°E)
Time: 21:06:08
(UTC+00:00)

CBERS-1 - Pass Details

Date: 15 January 2026
Orbit: 765 x 772 km, 98.9° (Epoch: 10 February)

Event Time Altitude Azimuth Distance (km) Brightness Sun altitude
Rises 05:14:53 0° 9° (N) 3,243 7.1 -9.1°
Reaches altitude 10° 05:17:15 10° 4° (N) 2,313 6.3 -8.7°
Maximum altitude 05:22:07 47° 291° (WNW) 1,006 4.2 -7.9°
Drops below altitude 10° 05:26:57 10° 219° (SW) 2,300 6.3 -7.1°
Sets 05:29:19 0° 213° (SSW) 3,223 7.1 -6.8°
